Hourly Weather Roundup
Issued by NWS Central Illinois

Home | Current Version | Previous Version | Text Only | Print | Product List | Glossary On
Versions: 1 2 3 4 5 6 7 8 9 10 11 12 13 14 15 16 17 18 19 20 21 22 23 24 25 26 27 28 29 30 31 32 33 34 35 36 37 38 39 40 41 42 43 44 45 46 47 48 49 50
000
NZUS43 KILX 031510
HWRILX

AREA WEATHER ROUNDUP
NATIONAL WEATHER SERVICE, LINCOLN IL
1000 AM CDT THU SEP 03 2015


CITY           SKY/WX    TMP DP  RH WIND       PRES   REMARKS
BLOOMINGTON    SUNNY     83  71  66 SW13      30.02S HX  87
CHAMPAIGN      SUNNY     84  71  65 SW8       30.02S HX  89
DANVILLE       SUNNY     82  72  73 SW7       29.99S HX  86
DECATUR        SUNNY     84  70  62 SW9       30.02S HX  88
EFFINGHAM      SUNNY     84  67  55 SW5       30.04S HX  87
FLORA          SUNNY     84  69  60 W3        30.03S HX  88
GALESBURG      SUNNY     82  70  68 SW8       29.98F HX  85
JACKSONVILLE   PTSUNNY   80  73  78 S7        30.01S HX  84
LACON          SUNNY     80  70  71 SW6       29.98R HX  83
LAWRENCEVILLE  SUNNY     85  69  58 W6        30.03F HX  89
LITCHFIELD     SUNNY     81  69  67 S5        30.02F HX  84
$$


CITY           SKY/WX    TMP DP  RH WIND       PRES   REMARKS
LINCOLN        MOSUNNY   85  71  60 SW3       29.99F HX  90
MACOMB         SUNNY     83  69  63 SW7       30.01F HX  86
MATTOON        SUNNY     84  69  60 SW5       30.02F HX  88
MT CARMEL AP   SUNNY     82  68  61 W5        30.03F HX  85
OLNEY-NOBLE AP SUNNY     82  70  65 CALM      30.04S HX  86
PARIS          SUNNY     84  71  64 SW8       30.03F HX  89
PEORIA         SUNNY     84  69  60 SW9       29.99S HX  88
PONTIAC        MOSUNNY   83  73  70 SW8       29.99F HX  89
RANTOUL        SUNNY     85  73  66 SW8       30.01S HX  91
ROBINSON       SUNNY     84  69  62 SW7       30.04F HX  87
SPRINGFIELD    MOSUNNY   85  72  65 SW7       30.00F HX  91
TAYLORVILLE    SUNNY     82  72  69 SW5       30.01F HX  87
$$

...REGIONAL REPORTS...


CITY           SKY/WX    TMP DP  RH WIND       PRES   REMARKS
CHICAGO O`HARE MOSUNNY   82  69  64 W12       29.94F HX  85
KANKAKEE       SUNNY     84  72  66 SW9       29.99S HX  89
MOLINE         MOSUNNY   83  70  64 SW6       29.95S HX  87
MOUNT STERLING SUNNY     80  71  72 SW5       30.00S HX  84
MOUNT VERNON   SUNNY     84  70  61 SW6       30.04S HX  88
PITTSFIELD     SUNNY     83  71  66 W6        30.02S HX  88
QUINCY         SUNNY     83  71  67 SW7       30.00S HX  87
ROCKFORD       SUNNY     81  70  69 SW7       29.96S HX  84
$$


CITY           SKY/WX    TMP DP  RH WIND       PRES   REMARKS
BURLINGTON     SUNNY     81  71  71 SW8       29.97F HX  85
CEDAR RAPIDS   SUNNY     80  73  79 SW9       29.94S HX  84
DES MOINES     PTSUNNY   78  69  73 S10       29.92S HX  80
KIRKSVILLE     MOSUNNY   81  69  67 SW10      30.00S HX  84
OTTUMWA        LGT RAIN  78  73  84 S12       29.95R HX  81
ST LOUIS       MOSUNNY   87  69  54 VRB6      30.03S HX  91
$$


CITY           SKY/WX    TMP DP  RH WIND       PRES   REMARKS
TERRE HAUTE    SUNNY     83  69  62 SW5       30.03F HX  86
EVANSVILLE     SUNNY     85  69  58 VRB5      30.04F HX  89
INDIANAPOLIS   SUNNY     83  68  60 SW10      30.03F HX  86
LAFAYETTE      SUNNY     83  69  62 SW7       30.00S HX  86
MADISON        MOSUNNY   79  70  74 VRB5      29.93F HX  82
MILWAUKEE      MOSUNNY   80  69  69 W8        29.92S HX  83
$$





USA.gov is the U.S. government's official web portal to all federal, state and local government web resources and services.